星链-3804 (STARLINK-3804 )

导读 | 豆包AI

STARLINK-3804是美国太空探索技术公司(SpaceX)星链互联网卫星项目中的一颗卫星,于2022年4月21日发射升空,属于星链星座组网卫星,主要为全球提供低延迟、高速率的宽带互联网服务,目前已在近地轨道运行,是星链大规模星座建设中的组成单元。

Basic Information
目录编号:
52270
目录名称:
STARLINK-3804
国际标识:
2022-041K
轨道中心:
EARTH
卫星名称:
星链-3804
卫星全名:
星链-3804 (STARLINK-3804 )
卫星状态:
在轨 (已飞行1424 天)
发射日期:
2022-04-21 UTC
国别 :
美国 (US)
星等 :
--
Orbit Information
数据来源 国际轨道数据 AOE轨道数据
星历时间 2026-03-14T18:55:52+0800
14小时前
查看轨道信息
2026-03-12T05:00:00+0800
3天前
查看轨道信息
半长轴 6917.9km 6917.888km
偏心率 0.0001355 0.000146
轨道倾角 53.217° 53.218°
近地点辐角 87.629° 85.316°
升交点赤经 87.754° 99.340°
平近点角 272.485° 290.587°
近地点 538.825km 538.74km
远地点 540.701km 540.762km
周期 95.438分钟 95.438分钟
每日圈数 15.088337 15.088376
Detailed Information
固有亮度:
5
最大亮度:
2.5
卫星平台:
Starlink v1.5
覆盖范围:
全球
运营商:
太空探索技术公司
运营商所在国:
美国
制造商(研发单位):
太空探索技术公司
制造商所在国:
美国
使用方式:
暂无
Satellite Introduction
星链(Starlink)计划是由太空探索技术公司(SpaceX)提出的一个巨型低轨卫星互联网星座项目,计划在2019年至2024年间在太空搭建由约1.2万颗卫星组成的“星链”网络,其中1584颗将部署在地球上空550千米处的近地轨道,并从2020年开始工作。该卫星仍在工作。
2D Orbit Map
3D Orbit Map
Orbit Altitude Analysis Chart
Orbit Inclination Analysis Chart
Orbit Comprehensive Analysis Chart
View Comprehensive Chart